Miscellaneous Local Product
Issued by NWS Hastings, NE

Home | Current Version | Previous Version | Text Only | Print | Product List | Glossary Off
Versions: 1 2 3 4 5 6 7 8 9 10 11 12 13 14 15 16 17 18 19 20 21 22 23 24 25 26 27 28 29 30 31 32 33 34 35 36 37 38 39 40 41 42 43 44 45 46 47 48 49 50

439
AXUS43 KGID 101102
MISGRI

GID CWA HOURLY WEATHER ROUNDUP
NATIONAL WEATHER SERVICE HASTINGS NE
500 AM CST WED FEB 10 2016

NOTE: "FAIR" INDICATES FEW OR NO CLOUDS BELOW 12,000 FEET WITH NO
SIGNIFICANT WEATHER AND/OR OBSTRUCTIONS TO VISIBILITY.

...SOUTH CENTRAL NEBRASKA...

CITY           SKY/WX    TMP DP  RH WIND       PRES   REMARKS
GRAND ISLAND   CLEAR     24  21  88 S7        29.98F WCI  16
HASTINGS       CLEAR     27  21  78 SW8       29.97F WCI  19
ORD            CLEAR     21  19  92 CALM      29.93F
YORK           CLOUDY    27  23  86 S13       30.01F WCI  16
AURORA         PTCLDY    26  22  83 S8        29.98F WCI  18
LEXINGTON      CLOUDY    21  19  90 W3        29.98F
HOLDREGE       CLOUDY    30  26  84 W9        30.00F WCI  22
HEBRON         CLEAR     26  19  72 S7        30.05S WCI  19

...NEBRASKA PANHANDLE...

CITY           SKY/WX    TMP DP  RH WIND       PRES   REMARKS
CHADRON        CLEAR     31  24  75 SW10      30.00F WCI  22
ALLIANCE       CLOUDY    32  25  75 W13       30.01F WCI  22
SCOTTSBLUFF    CLOUDY    32  25  75 NW13      30.05F WCI  22
SIDNEY         CLOUDY    35  23  61 W16       30.07F WCI  25

...WESTERN AND NORTH CENTRAL NEBRASKA...

CITY           SKY/WX    TMP DP  RH WIND       PRES   REMARKS
VALENTINE      CLEAR     32  28  85 W10       29.91F WCI  24
AINSWORTH      CLEAR     33  29  86 W12       29.90F WCI  24
ONEILL         CLOUDY    29  26  88 CALM      29.93F
BROKEN BOW     CLEAR     29  25  85 W10       29.94F WCI  20
IMPERIAL       CLOUDY    36  24  62 W15       30.04F WCI  27
NORTH PLATTE   CLEAR     24  21  88 NW9       30.00F WCI  14
MCCOOK         CLOUDY    28  24  85 W12       30.04F WCI  18

...EASTERN NEBRASKA...

CITY           SKY/WX    TMP DP  RH WIND       PRES   REMARKS
NORFOLK        CLOUDY    27  21  78 SE7       29.97F WCI  19
SO SIOUX CITY  CLOUDY    21  15  78 SE9       30.05F WCI  11
TEKAMAH        CLOUDY    44  18  35 SE9       30.06F
COLUMBUS       CLOUDY    27  14  59 S7        30.01F WCI  19
ALBION         CLOUDY    27  22  81 E3        29.96F
OMAHA EPPLEY   FLURRIES  23  17  78 SE9       30.09F WCI  13
OFFUTT AFB     CLOUDY    24  17  76 SE6       30.08F WCI  17
MILLARD        CLOUDY    25  18  74 CALM      30.09F
LINCOLN        CLOUDY    27  18  69 S8        30.07F WCI  19
NEBRASKA CITY  CLOUDY    24  19  81 S8        30.09F WCI  15
BEATRICE       CLOUDY    28  15  58 S12       30.07F WCI  18
FALLS CITY     CLOUDY    24  17  74 S5        30.13F WCI  18

...NORTHERN KANSAS...

CITY           SKY/WX    TMP DP  RH WIND       PRES   REMARKS
GOODLAND       CLEAR     35  24  64 W15       30.10S WCI  25
HILL CITY      CLEAR     32  25  75 CALM      30.05F
NORTON         SUNNY     30  23  74 SW13      30.02F WCI  20
PHILLIPSBURG   CLOUDY    25  23  93 CALM      30.05S
SMITH CENTER   CLEAR     23  19  86 CALM      30.05F
BELOIT         CLEAR     25  18  74 SE7       30.07F WCI  17
HAYS           CLEAR     30  19  64 W7        30.07F WCI  23
RUSSELL        CLEAR     28  24  85 SW10      30.05F WCI  19
CONCORDIA      CLEAR     26  16  65 S8        30.08F WCI  18
SALINA         CLEAR     27  17  66 S7        30.12F WCI  19
TOPEKA         CLOUDY    25  14  63 CALM      30.19F



USA.gov is the U.S. government's official web portal to all federal, state and local government web resources and services.